CST,Max TemperatureF,Mean TemperatureF,Min TemperatureF,Max Dew PointF,MeanDew PointF,Min DewpointF,Max Humidity, Mean Humidity, Min Humidity, Max Sea Level PressureIn, Mean Sea Level PressureIn, Min Sea Level PressureIn, Max VisibilityMiles, Mean VisibilityMiles, Min VisibilityMiles, Max Wind SpeedMPH, Mean Wind SpeedMPH, Max Gust SpeedMPH,PrecipitationIn, CloudCover, Events, WindDirDegrees
2013-1-1,25,17,8,21,12,6,94,77,60,30.30,30.24,30.15,10,10,7,12,6,16,0.00,3,,349
2013-1-2,33,20,6,22,12,3,89,73,49,30.26,30.20,30.14,10,10,7,8,3,,0.00,1,,190
2013-1-3,37,28,18,27,23,17,98,82,65,30.41,30.34,30.23,10,8,2,9,4,,0.00,3,,267
2013-1-4,39,26,14,26,21,13,98,75,51,30.41,30.34,30.27,10,9,5,12,3,17,0.00,0,,197
2013-1-5,40,33,26,33,28,21,83,76,68,30.27,30.18,30.08,10,10,10,9,6,,0.00,5,Rain,196
2013-1-6,35,29,23,28,21,18,85,71,58,30.36,30.29,30.13,10,10,10,14,7,22,0.00,2,,281
2013-1-7,49,35,21,27,23,18,87,63,38,30.34,30.21,30.10,10,10,10,13,7,17,0.00,0,,172
2013-1-8,53,40,27,35,27,22,81,60,34,30.13,30.08,30.02,10,10,10,14,7,20,0.00,2,,169
2013-1-9,54,43,32,35,31,24,99,66,37,30.43,30.35,30.18,10,9,2,9,3,,0.00,0,,136
2013-1-10,50,44,39,50,40,23,100,87,44,30.38,30.04,29.74,10,6,0,16,9,22,0.15,7,Fog-Rain,118
2013-1-11,63,54,44,50,46,43,100,76,47,29.80,29.73,29.65,10,9,0,18,9,25,0.03,3,Fog,176
2013-1-12,59,42,26,44,27,18,96,69,39,30.06,29.95,29.72,10,8,2,17,10,23,0.11,6,Snow,315
2013-1-13,25,20,16,23,13,10,88,70,60,30.36,30.19,29.99,10,10,10,14,9,21,0.08,4,,307
2013-1-14,28,20,11,12,9,6,94,68,39,30.50,30.43,30.37,10,10,10,6,1,,0.00,0,,10
2013-1-15,30,20,9,16,12,7,95,72,46,30.41,30.31,30.17,10,10,10,7,1,,0.00,2,,33
2013-1-16,42,28,13,23,17,10,90,64,37,30.18,30.10,30.02,10,10,10,15,4,22,0.00,1,,221
2013-1-17,40,33,26,30,25,20,94,73,47,30.47,30.36,30.15,10,10,10,13,6,17,0.00,2,,329
2013-1-18,56,41,26,29,25,22,84,56,29,30.45,30.25,30.07,10,10,10,18,8,28,0.00,0,,185
2013-1-19,59,51,42,34,31,28,61,50,34,30.20,30.05,29.96,10,10,10,15,10,23,0.00,0,,242
2013-1-20,42,32,22,30,14,9,66,51,32,30.36,30.31,30.21,10,10,10,15,9,25,0.00,1,,349
2013-1-21,22,19,16,12,3,-6,75,53,31,30.41,30.38,30.35,10,10,10,15,8,20,0.00,5,,317
2013-1-22,25,20,15,8,1,-4,71,46,36,30.45,30.37,30.31,10,10,10,7,5,,0.00,6,,55
2013-1-23,44,28,13,21,15,8,82,60,37,30.39,30.25,30.16,10,10,10,13,4,20,0.00,0,,346
2013-1-24,27,19,11,14,5,1,68,50,34,30.56,30.40,30.19,10,10,10,15,10,21,0.00,2,,71
2013-1-25,43,35,27,20,14,6,54,45,33,30.25,30.18,30.12,10,10,10,10,4,16,0.00,3,,261
2013-1-26,47,36,25,22,19,17,81,54,31,30.35,30.26,30.18,10,10,10,12,5,,0.00,0,,88
2013-1-27,55,44,34,52,39,19,97,84,53,30.18,29.97,29.83,10,8,3,16,11,23,0.06,6,Rain-Thunderstorm,149
2013-1-28,76,65,54,59,55,52,97,75,46,29.90,29.83,29.75,10,10,7,17,8,24,0.00,5,,170
2013-1-29,67,54,40,59,55,40,100,92,71,29.74,29.59,29.46,10,8,0,23,8,36,1.34,7,Rain-Thunderstorm,175
2013-1-30,40,33,26,40,26,14,99,82,62,29.96,29.67,29.39,10,8,1,23,11,38,0.08,8,Rain-Snow,294
2013-1-31,28,19,10,19,10,-2,73,61,49,30.46,30.14,29.95,10,10,10,21,10,31,0.00,6,,283